Time,TemperatureF,DewpointF,PressureIn,WindDirection,WindDirectionDegrees,WindSpeedMPH,WindSpeedGustMPH,Humidity,HourlyPrecipIn,Conditions,Clouds,dailyrainin,SolarRadiationWatts/m^2,SoftwareType,DateUTC
2013-04-08 00:03:00,53.0,38.0,29.70,SW,217,2.0,5.0,56,0.00,,,0.00,0.000000,,2013-04-08 04:03:00,
2013-04-08 00:13:00,53.0,38.0,29.70,SW,217,2.0,5.0,56,0.00,,,0.00,0.000000,,2013-04-08 04:13:00,
2013-04-08 00:44:00,56.0,41.0,29.70,WSW,257,34.0,50.0,58,0.00,,,0.00,0.000000,,2013-04-08 04:44:00,
2013-04-08 00:53:00,56.0,41.0,29.70,WSW,257,34.0,50.0,58,0.00,,,0.00,0.000000,,2013-04-08 04:53:00,
2013-04-08 01:03:00,56.0,41.0,29.70,WSW,257,34.0,50.0,58,0.00,,,0.00,0.000000,,2013-04-08 05:03:00,
2013-04-08 01:12:00,56.0,41.0,29.70,WSW,257,34.0,50.0,58,0.00,,,0.00,0.000000,,2013-04-08 05:12:00,
2013-04-08 01:42:00,55.0,44.0,29.71,NE,49,2.0,62.0,67,0.00,,,0.00,0.000000,,2013-04-08 05:42:00,
2013-04-08 01:53:00,55.0,44.0,29.71,NE,49,2.0,62.0,67,0.00,,,0.00,0.000000,,2013-04-08 05:53:00,
2013-04-08 02:02:00,55.0,44.0,29.71,NE,49,2.0,62.0,67,0.00,,,0.00,0.000000,,2013-04-08 06:02:00,
2013-04-08 02:12:00,55.0,44.0,29.71,NE,49,2.0,62.0,67,0.00,,,0.00,0.000000,,2013-04-08 06:12:00,
2013-04-08 02:43:00,53.0,47.0,29.70,SW,217,2.0,8.0,79,0.00,,,0.00,0.000000,,2013-04-08 06:43:00,
2013-04-08 02:52:00,53.0,47.0,29.70,SW,217,2.0,8.0,79,0.00,,,0.00,0.000000,,2013-04-08 06:52:00,
2013-04-08 03:02:00,53.0,47.0,29.70,SW,217,2.0,8.0,79,0.00,,,0.00,0.000000,,2013-04-08 07:02:00,
2013-04-08 03:12:00,53.0,47.0,29.70,SW,217,2.0,8.0,79,0.00,,,0.00,0.000000,,2013-04-08 07:12:00,
2013-04-08 03:42:00,53.0,48.0,29.69,SW,223,3.0,6.0,84,0.00,,,0.00,0.000000,,2013-04-08 07:42:00,
2013-04-08 03:53:00,53.0,48.0,29.69,SW,223,3.0,6.0,84,0.00,,,0.00,0.000000,,2013-04-08 07:53:00,
2013-04-08 04:02:00,53.0,48.0,29.69,SW,223,3.0,6.0,84,0.00,,,0.00,0.000000,,2013-04-08 08:02:00,
2013-04-08 04:12:00,53.0,48.0,29.69,SW,223,3.0,6.0,84,0.00,,,0.00,0.000000,,2013-04-08 08:12:00,
2013-04-08 04:43:00,55.0,51.0,29.69,SW,235,4.0,48.0,86,0.00,,,0.00,0.000000,,2013-04-08 08:43:00,
2013-04-08 04:52:00,55.0,51.0,29.69,SW,235,4.0,48.0,86,0.00,,,0.00,0.000000,,2013-04-08 08:52:00,
2013-04-08 05:03:00,55.0,51.0,29.69,SW,235,4.0,48.0,86,0.00,,,0.00,0.000000,,2013-04-08 09:03:00,
2013-04-08 05:12:00,55.0,51.0,29.69,SW,235,4.0,48.0,86,0.00,,,0.00,0.000000,,2013-04-08 09:12:00,
2013-04-08 05:43:00,54.0,51.0,29.69,WSW,248,3.0,9.0,90,0.00,,,0.00,0.000000,,2013-04-08 09:43:00,
2013-04-08 05:53:00,54.0,51.0,29.69,WSW,248,3.0,9.0,90,0.00,,,0.00,0.000000,,2013-04-08 09:53:00,
2013-04-08 06:03:00,54.0,51.0,29.69,WSW,248,3.0,9.0,90,0.00,,,0.00,0.000000,,2013-04-08 10:03:00,
2013-04-08 06:13:00,54.0,51.0,29.69,WSW,248,3.0,9.0,90,0.00,,,0.00,0.000000,,2013-04-08 10:13:00,
2013-04-08 06:43:00,51.0,50.0,29.71,SW,233,3.0,7.0,98,0.00,,,0.00,0.000000,,2013-04-08 10:43:00,
2013-04-08 06:53:00,51.0,50.0,29.71,SW,233,3.0,7.0,98,0.00,,,0.00,0.000000,,2013-04-08 10:53:00,
2013-04-08 07:03:00,51.0,50.0,29.71,SW,233,3.0,7.0,98,0.00,,,0.00,0.000000,,2013-04-08 11:03:00,
2013-04-08 07:12:00,51.0,50.0,29.71,SW,233,3.0,7.0,98,0.00,,,0.00,0.000000,,2013-04-08 11:12:00,
2013-04-08 07:43:00,52.0,52.0,29.73,SW,235,1.0,6.0,100,0.00,,,0.00,4.000000,,2013-04-08 11:43:00,
2013-04-08 07:53:00,52.0,52.0,29.73,SW,235,1.0,6.0,100,0.00,,,0.00,4.000000,,2013-04-08 11:53:00,
2013-04-08 08:03:00,52.0,52.0,29.73,SW,235,1.0,6.0,100,0.00,,,0.00,4.000000,,2013-04-08 12:03:00,
2013-04-08 08:12:00,52.0,52.0,29.73,SW,235,1.0,6.0,100,0.00,,,0.00,4.000000,,2013-04-08 12:12:00,
2013-04-08 08:43:00,59.0,54.0,29.75,WSW,238,3.0,49.0,84,0.00,,,0.00,90.000000,,2013-04-08 12:43:00,
2013-04-08 08:53:00,59.0,54.0,29.75,WSW,238,3.0,49.0,84,0.00,,,0.00,90.000000,,2013-04-08 12:53:00,
2013-04-08 09:03:00,59.0,54.0,29.75,WSW,238,3.0,49.0,84,0.00,,,0.00,90.000000,,2013-04-08 13:03:00,
2013-04-08 09:12:00,59.0,54.0,29.75,WSW,238,3.0,49.0,84,0.00,,,0.00,90.000000,,2013-04-08 13:12:00,
2013-04-08 09:43:00,64.0,53.0,29.74,WSW,237,8.0,16.0,68,0.00,,,0.00,267.000000,,2013-04-08 13:43:00,
2013-04-08 09:53:00,64.0,53.0,29.74,WSW,237,8.0,16.0,68,0.00,,,0.00,267.000000,,2013-04-08 13:53:00,
2013-04-08 10:03:00,64.0,53.0,29.74,WSW,237,8.0,16.0,68,0.00,,,0.00,267.000000,,2013-04-08 14:03:00,
2013-04-08 10:12:00,64.0,53.0,29.74,WSW,237,8.0,16.0,68,0.00,,,0.00,267.000000,,2013-04-08 14:12:00,
2013-04-08 10:33:00,68.0,52.0,29.74,WSW,256,8.0,23.0,56,0.00,,,0.00,452.000000,,2013-04-08 14:33:00,
2013-04-08 10:43:00,68.0,52.0,29.74,WSW,256,8.0,23.0,56,0.00,,,0.00,452.000000,,2013-04-08 14:43:00,
2013-04-08 10:52:00,68.0,52.0,29.74,WSW,256,8.0,23.0,56,0.00,,,0.00,452.000000,,2013-04-08 14:52:00,
2013-04-08 11:02:00,68.0,52.0,29.74,WSW,256,8.0,23.0,56,0.00,,,0.00,452.000000,,2013-04-08 15:02:00,
2013-04-08 11:12:00,68.0,52.0,29.74,WSW,256,8.0,23.0,56,0.00,,,0.00,452.000000,,2013-04-08 15:12:00,
2013-04-08 11:35:00,71.0,52.0,29.74,WSW,240,8.0,21.0,51,0.00,,,0.00,522.000000,,2013-04-08 15:35:00,
2013-04-08 11:43:00,71.0,52.0,29.74,WSW,240,8.0,21.0,51,0.00,,,0.00,522.000000,,2013-04-08 15:43:00,
2013-04-08 11:53:00,71.0,52.0,29.74,WSW,240,8.0,21.0,51,0.00,,,0.00,522.000000,,2013-04-08 15:53:00,
2013-04-08 12:03:00,71.0,52.0,29.74,WSW,240,8.0,21.0,51,0.00,,,0.00,522.000000,,2013-04-08 16:03:00,
2013-04-08 12:13:00,71.0,52.0,29.74,WSW,240,8.0,21.0,51,0.00,,,0.00,522.000000,,2013-04-08 16:13:00,
2013-04-08 13:45:00,78.0,51.0,29.70,SW,220,11.0,22.0,39,-99.99,,,0.00,559.000000,,2013-04-08 17:45:00,
2013-04-08 13:53:00,78.0,51.0,29.70,SW,220,11.0,22.0,39,-99.99,,,0.00,559.000000,,2013-04-08 17:53:00,
2013-04-08 14:02:00,78.0,51.0,29.70,SW,220,11.0,22.0,39,-99.99,,,0.00,559.000000,,2013-04-08 18:02:00,
2013-04-08 14:12:00,78.0,51.0,29.70,SW,220,11.0,22.0,39,-99.99,,,0.00,559.000000,,2013-04-08 18:12:00,
2013-04-08 14:42:00,80.0,50.0,29.68,SW,226,8.0,22.0,35,0.00,,,0.00,512.000000,,2013-04-08 18:42:00,
2013-04-08 14:53:00,80.0,50.0,29.68,SW,226,8.0,22.0,35,0.00,,,0.00,512.000000,,2013-04-08 18:53:00,
2013-04-08 15:03:00,80.0,50.0,29.68,SW,226,8.0,22.0,35,0.00,,,0.00,512.000000,,2013-04-08 19:03:00,
2013-04-08 15:12:00,80.0,50.0,29.68,SW,226,8.0,22.0,35,0.00,,,0.00,512.000000,,2013-04-08 19:12:00,
2013-04-08 15:43:00,79.0,47.0,29.66,SSW,202,11.0,21.0,33,0.00,,,0.00,744.000000,,2013-04-08 19:43:00,
2013-04-08 15:53:00,79.0,47.0,29.66,SSW,202,11.0,21.0,33,0.00,,,0.00,744.000000,,2013-04-08 19:53:00,
2013-04-08 16:02:00,79.0,47.0,29.66,SSW,202,11.0,21.0,33,0.00,,,0.00,744.000000,,2013-04-08 20:02:00,
2013-04-08 16:12:00,79.0,47.0,29.66,SSW,202,11.0,21.0,33,0.00,,,0.00,744.000000,,2013-04-08 20:12:00,
2013-04-08 16:43:00,81.0,48.0,29.64,SW,220,10.0,20.0,32,0.00,,,0.00,608.000000,,2013-04-08 20:43:00,
2013-04-08 16:52:00,81.0,48.0,29.64,SW,220,10.0,20.0,32,0.00,,,0.00,608.000000,,2013-04-08 20:52:00,
2013-04-08 17:02:00,81.0,48.0,29.64,SW,220,10.0,20.0,32,0.00,,,0.00,608.000000,,2013-04-08 21:02:00,
2013-04-08 17:12:00,81.0,48.0,29.64,SW,220,10.0,20.0,32,0.00,,,0.00,608.000000,,2013-04-08 21:12:00,
2013-04-08 17:43:00,78.0,47.0,29.63,SSW,197,9.0,24.0,33,0.00,,,0.00,350.000000,,2013-04-08 21:43:00,
2013-04-08 17:53:00,78.0,47.0,29.63,SSW,197,9.0,24.0,33,0.00,,,0.00,350.000000,,2013-04-08 21:53:00,
2013-04-08 18:03:00,78.0,47.0,29.63,SSW,197,9.0,24.0,33,0.00,,,0.00,350.000000,,2013-04-08 22:03:00,
2013-04-08 18:13:00,78.0,47.0,29.63,SSW,197,9.0,24.0,33,0.00,,,0.00,350.000000,,2013-04-08 22:13:00,
2013-04-08 18:44:00,79.0,47.0,29.63,SSW,212,10.0,21.0,33,0.00,,,0.00,339.000000,,2013-04-08 22:44:00,
2013-04-08 18:53:00,79.0,47.0,29.63,SSW,212,10.0,21.0,33,0.00,,,0.00,339.000000,,2013-04-08 22:53:00,
2013-04-08 19:03:00,79.0,47.0,29.63,SSW,212,10.0,21.0,33,0.00,,,0.00,339.000000,,2013-04-08 23:03:00,
2013-04-08 19:13:00,79.0,47.0,29.63,SSW,212,10.0,21.0,33,0.00,,,0.00,339.000000,,2013-04-08 23:13:00,
2013-04-08 19:43:00,74.0,46.0,29.64,SW,223,7.0,21.0,37,0.00,,,0.00,124.000000,,2013-04-08 23:43:00,
2013-04-08 19:52:00,74.0,46.0,29.64,SW,223,7.0,21.0,37,0.00,,,0.00,124.000000,,2013-04-08 23:52:00,
2013-04-08 20:02:00,74.0,46.0,29.64,SW,223,7.0,21.0,37,0.00,,,0.00,124.000000,,2013-04-09 00:02:00,
2013-04-08 20:13:00,74.0,46.0,29.64,SW,223,7.0,21.0,37,0.00,,,0.00,124.000000,,2013-04-09 00:13:00,
2013-04-08 20:42:00,70.0,48.0,29.65,SSW,212,3.0,14.0,45,0.00,,,0.00,6.000000,,2013-04-09 00:42:00,
2013-04-08 20:52:00,70.0,48.0,29.65,SSW,212,3.0,14.0,45,0.00,,,0.00,6.000000,,2013-04-09 00:52:00,
2013-04-08 21:03:00,70.0,48.0,29.65,SSW,212,3.0,14.0,45,0.00,,,0.00,6.000000,,2013-04-09 01:03:00,
2013-04-08 21:12:00,70.0,48.0,29.65,SSW,212,3.0,14.0,45,0.00,,,0.00,6.000000,,2013-04-09 01:12:00,
2013-04-08 21:34:00,66.0,48.0,29.66,SSW,201,3.0,9.0,52,0.00,,,0.00,0.000000,,2013-04-09 01:34:00,
2013-04-08 21:42:00,66.0,48.0,29.66,SSW,201,3.0,9.0,52,0.00,,,0.00,0.000000,,2013-04-09 01:42:00,
2013-04-08 21:53:00,66.0,48.0,29.66,SSW,201,3.0,9.0,52,0.00,,,0.00,0.000000,,2013-04-09 01:53:00,
2013-04-08 22:02:00,66.0,48.0,29.66,SSW,201,3.0,9.0,52,0.00,,,0.00,0.000000,,2013-04-09 02:02:00,
2013-04-08 22:13:00,66.0,48.0,29.66,SSW,201,3.0,9.0,52,0.00,,,0.00,0.000000,,2013-04-09 02:13:00,
2013-04-08 22:44:00,66.0,48.0,29.68,SW,218,2.0,7.0,53,0.00,,,0.00,0.000000,,2013-04-09 02:44:00,
2013-04-08 22:52:00,66.0,48.0,29.68,SW,218,2.0,7.0,53,0.00,,,0.00,0.000000,,2013-04-09 02:52:00,
2013-04-08 23:02:00,66.0,48.0,29.68,SW,218,2.0,7.0,53,0.00,,,0.00,0.000000,,2013-04-09 03:02:00,
2013-04-08 23:12:00,66.0,48.0,29.68,SW,218,2.0,7.0,53,0.00,,,0.00,0.000000,,2013-04-09 03:12:00,
2013-04-08 23:43:00,65.0,49.0,29.68,North,3,26.0,42.0,56,0.00,,,0.00,0.000000,,2013-04-09 03:43:00,
2013-04-08 23:53:00,65.0,49.0,29.68,North,3,26.0,42.0,56,0.00,,,0.00,0.000000,,2013-04-09 03:53:00,